Volver al catálogo

ONEWEB-0176

ActivoComunicacionesPO
NORAD 48210·PAYLOAD·🇬🇧 United Kingdom

Lanzado Apr 25, 2021 desde Vostochny Cosmodrome

Loading…

Próximos Pases (próximas 24 horas)

TLE

ActualizadoSource: CelesTrak SupGP

Época: Sep 14, 2026, 13:28 UTC

1 48210C 21031A   26257.56130046 -.00000878  00000+0 -23715-2 0  2570
2 48210  87.8896 271.8753 0001913  88.6587  11.5535 13.14505116    10

Sigue ONEWEB-0176 en tiempo real con AllMySat

Download on the App Store